This is the latest recevied weather packets stored in our database for station/object SV2BZQ-2. If no packets are shown the sender has not sent any weather packets the latest 10 day(s).
| Time | Temp. | Humidity | Pressure | Rain* | Wind** | Luminosity | Snow |
|---|---|---|---|---|---|---|---|
| 1778314717 | 16.67° C | 98% | 1013.6 hPa | 0 mm | - | 330 W/m² | - |
| 1778314514 | 16.67° C | 98% | 1013.6 hPa | 0 mm | - | 631 W/m² | - |
| 1778314388 | 16.67° C | 98% | 1013.6 hPa | 0 mm | - | 411 W/m² | - |
| 1778314297 | 16.67° C | 98% | 1013.5 hPa | 0 mm | - | 415 W/m² | - |
| 1778314180 | 17.22° C | 98% | 1013.6 hPa | 0 mm | - | 378 W/m² | - |
| 1778314033 | 17.22° C | 99% | 1013.6 hPa | 0 mm | - | 378 W/m² | - |
| 1778313900 | 16.67° C | 99% | 1013.7 hPa | 0 mm | - | 346 W/m² | - |
| 1778313798 | 16.67° C | 99% | 1013.6 hPa | 0 mm | - | 896 W/m² | - |
| 1778313668 | 16.67° C | 99% | 1013.6 hPa | 0 mm | - | 916 W/m² | - |
| 1778313574 | 16.67° C | 99% | 1013.6 hPa | 0 mm | - | 846 W/m² | - |
| 1778313434 | 16.67° C | 99% | 1013.7 hPa | 0 mm | - | 809 W/m² | - |
| 1778313336 | 16.67° C | 99% | 1013.7 hPa | 0 mm | - | 605 W/m² | - |
| 1778313227 | 16.67° C | 99% | 1013.6 hPa | 0 mm | - | 540 W/m² | - |
| 1778313118 | 16.67° C | 99% | 1013.6 hPa | 0 mm | - | 420 W/m² | - |
| 1778312996 | 16.67° C | 99% | 1013.6 hPa | 0 mm | - | 476 W/m² | - |
| 1778312889 | 16.67° C | 99% | 1013.6 hPa | 0 mm | - | 622 W/m² | - |
| 1778312727 | 16.67° C | 99% | 1013.6 hPa | 0 mm | - | 401 W/m² | - |
| 1778312625 | 16.11° C | 99% | 1013.6 hPa | 0 mm | - | 343 W/m² | - |
| 1778312408 | 16.11° C | 99% | 1013.6 hPa | 0 mm | - | 260 W/m² | - |
| 1778312284 | 16.11° C | 99% | 1013.7 hPa | 0 mm | - | 257 W/m² | - |
| 1778312130 | 16.11° C | 99% | 1013.7 hPa | 0 mm | - | 276 W/m² | - |
| 1778311974 | 16.11° C | 99% | 1013.7 hPa | 0 mm | - | 329 W/m² | - |
| 1778311817 | 16.11° C | 99% | 1013.8 hPa | 0 mm | - | 394 W/m² | - |
| 1778311701 | 16.11° C | 98% | 1013.7 hPa | 0 mm | - | 330 W/m² | - |
| 1778311611 | 16.11° C | 98% | 1013.9 hPa | 0 mm | - | 323 W/m² | - |
* Rain latest hour (hover to see other rain measurements)
** Current wind speed in m/s (hover to see current wind gust speed)